This demonstration page uses our WeatherBlox Daily Observations layout. Learn more.

40.92945, -100.16068

Hourly Observations for June 27, 2018

Temp ( °F °C ) Dew Point ( °F °C ) Humidity (%) Winds ( mph kmh ) Pressure ( in mb ) Visibility ( mi km ) Precip ( " mm )
12:15 am 00:15 Clear 72 22 65 18.2 79 79 SE 8 13 29.8 1009 10 16.0934 0 0
12:35 am 00:35 Clear 71 21.9 65 18.1 79 79 SE 8 13 29.8 1009 10 16.0934 0 0
12:55 am 00:55 Clear 71 21.5 65 18.1 81 81 SE 7 11 29.8 1009 10 16.0934 0 0
1:15 am 01:15 Clear 70 21.2 64 18 82 82 SE 7 11 29.83 1010 10 16.0934 0 0
1:35 am 01:35 Clear 69 20.5 64 17.8 85 85 SSE 8 13 29.83 1010 10 16.0934 0 0
1:55 am 01:55 Clear 70 21 64 18 83 83 SSE 10 17 29.83 1010 10 16.0934 0 0
2:15 am 02:15 Clear 70 21.2 64 18 82 82 SE 13 20 29.83 1010 10 16.0934 0 0
2:35 am 02:35 Clear 70 21 64 17.9 83 83 SE 9 15 29.83 1010 10 16.0934 0 0
2:55 am 02:55 Clear 69 20.8 64 17.9 84 84 SE 7 11 29.83 1010 10 16.0934 0 0
3:15 am 03:15 Clear 69 20.3 64 17.9 86 86 SE 7 11 29.83 1010 10 16.0934 0 0
3:35 am 03:35 Clear 68 20.1 64 18 88 88 SE 6 9 29.83 1010 10 16.0934 0 0
3:55 am 03:55 Clear 67 19.7 64 17.8 89 89 ESE 6 9 29.8 1009 10 16.0934 0 0
4:15 am 04:15 Clear 67 19.5 64 18 91 91 ESE 6 9 29.8 1009 10 16.0934 0 0
4:35 am 04:35 Clear 67 19.5 64 18 91 91 SE 6 9 29.8 1009 10 16.0934 0 0
4:55 am 04:55 Clear 66 19.1 64 17.7 92 92 SE 5 7 29.8 1009 10 16.0934 0 0
5:15 am 05:15 Clear 66 19 64 17.6 92 92 Calm 29.77 1008 10 16.0934 0 0
5:35 am 05:35 Clear 65 18.6 64 17.5 93 93 Calm 29.77 1008 7 11.26538 0 0
5:55 am 05:55 Clear 65 18.5 64 17.5 94 94 Calm 29.77 1008 7 11.26538 0 0
6:15 am 06:15 Sunny with Mist and Fog 63 17.3 61 16.3 94 94 Calm 29.8 1009 3 4.82802 0 0
6:35 am 06:35 Sunny with Mist and Fog 64 17.5 62 16.6 95 95 Calm 29.8 1009 2.5 4.02335 0 0
6:55 am 06:55 Mostly Cloudy with Mist and Fog 64 17.6 63 17 96 96 Calm 29.8 1009 1.75 2.816345 0 0
7:15 am 07:15 Sunny with Mist and Fog 65 18.3 64 17.6 96 96 Calm 29.8 1009 2.5 4.02335 0 0
7:35 am 07:35 Sunny with Mist and Fog 66 19 65 18.2 95 95 Calm 29.77 1008 3 4.82802 0 0
7:55 am 07:55 Sunny 68 19.8 65 18.5 92 92 Calm 29.8 1009 10 16.0934 0 0
8:15 am 08:15 Sunny 70 21 66 18.8 87 87 SSE 7 11 29.77 1008 10 16.0934 0 0
8:35 am 08:35 Sunny 72 22 67 19.3 85 85 SSE 14 22 29.71 1006 10 16.0934 0 0
8:55 am 08:55 Sunny 73 22.5 67 19.6 84 84 SSE 17 28 29.71 1006 10 16.0934 0 0
9:15 am 09:15 Partly Cloudy 75 23.9 69 20.3 80 80 NNW 17 28 29.77 1008 10 16.0934 0 0
9:35 am 09:35 Mostly Cloudy 74 23.3 68 20 82 82 NE 7 11 29.77 1008 10 16.0934 0 0
9:55 am 09:55 Mostly Cloudy 75 24.1 69 20.5 80 80 ENE 6 9 29.77 1008 10 16.0934 0 0
10:15 am 10:15 Partly Cloudy 77 24.8 69 20.6 78 78 ENE 7 11 29.77 1008 10 16.0934 0 0
10:35 am 10:35 Sunny 78 25.6 70 21 76 76 ESE 5 7 29.77 1008 10 16.0934 0 0
10:55 am 10:55 Sunny 80 26.4 70 21.3 74 74 ESE 5 7 29.74 1007 10 16.0934 0 0
11:15 am 11:15 Sunny 81 27.2 71 21.5 71 71 ESE 3 6 29.74 1007 10 16.0934 0 0
11:35 am 11:35 Mostly Cloudy 81 27.4 71 21.9 72 72 Calm 29.74 1007 10 16.0934 0 0
11:55 am 11:55 Mostly Cloudy 83 28.4 72 22.4 70 70 SSE 6 9 29.74 1007 10 16.0934 0 0
12:15 pm 12:15 Mostly Cloudy 83 28.2 71 21.9 69 69 SSE 6 9 29.74 1007 10 16.0934 0 0
12:35 pm 12:35 Mostly Cloudy 84 28.8 72 22.3 68 68 SSE 7 11 29.74 1007 10 16.0934 0 0
12:55 pm 12:55 Mostly Cloudy 84 28.8 72 22.3 68 68 ESE 7 11 29.74 1007 10 16.0934 0 0
1:15 pm 13:15 Mostly Cloudy 86 29.9 72 22.4 64 64 S 6 9 29.71 1006 10 16.0934 0 0
1:35 pm 13:35 Mostly Cloudy 86 29.8 72 22.1 63 63 SE 3 6 29.71 1006 10 16.0934 0 0
1:55 pm 13:55 Partly Cloudy 87 30.5 72 22.4 62 62 ESE 5 7 29.71 1006 10 16.0934 0 0
2:15 pm 14:15 Partly Cloudy 88 30.9 73 22.6 61 61 SSE 7 11 29.71 1006 10 16.0934 0 0
2:35 pm 14:35 Partly Cloudy 87 30.8 72 22.4 61 61 S 5 7 29.68 1005 10 16.0934 0 0
2:55 pm 14:55 Partly Cloudy 89 31.5 74 23.1 61 61 S 6 9 29.68 1005 10 16.0934 0 0
3:15 pm 15:15 Mostly Cloudy 90 32 75 23.7 62 62 ESE 8 13 29.68 1005 10 16.0934 0 0
3:35 pm 15:35 Mostly Cloudy 89 31.7 75 23.8 63 63 SSE 8 13 29.68 1005 10 16.0934 0 0
3:55 pm 15:55 Mostly Cloudy 89 31.8 75 24.1 64 64 SSE 6 9 29.68 1005 10 16.0934 0 0
4:15 pm 16:15 Mostly Cloudy 90 32.2 75 24 62 62 S 8 13 29.68 1005 10 16.0934 0 0
4:35 pm 16:35 Partly Cloudy 91 32.5 75 24.1 61 61 SE 8 13 29.68 1005 10 16.0934 0 0
4:55 pm 16:55 Partly Cloudy 91 32.6 74 23.3 58 58 S 6 9 29.68 1005 10 16.0934 0 0
5:15 pm 17:15 Partly Cloudy 91 32.9 74 23.5 58 58 S 5 7 29.65 1004 10 16.0934 0 0
5:35 pm 17:35 Partly Cloudy 91 32.9 75 24 59 59 S 8 13 29.65 1004 10 16.0934 0 0
5:55 pm 17:55 Partly Cloudy 90 32.4 75 24 61 61 SE 9 15 29.68 1005 10 16.0934 0 0
6:15 pm 18:15 Sunny 91 32.5 77 24.8 64 64 SE 9 15 29.68 1005 10 16.0934 0 0
6:35 pm 18:35 Partly Cloudy 90 32.2 77 25 66 66 SE 9 15 29.65 1004 10 16.0934 0 0
6:55 pm 18:55 Sunny 89 31.9 77 25.2 68 68 ESE 5 7 29.65 1004 10 16.0934 0 0
7:15 pm 19:15 Sunny 89 31.7 77 24.9 67 67 SE 8 13 29.65 1004 10 16.0934 0 0
7:35 pm 19:35 Sunny 88 31.3 77 25 69 69 ESE 10 17 29.65 1004 10 16.0934 0 0
7:55 pm 19:55 Sunny 88 31 77 25.1 71 71 ESE 10 17 29.65 1004 10 16.0934 0 0
8:15 pm 20:15 Sunny 87 30.5 77 25 72 72 ESE 12 19 29.65 1004 10 16.0934 0 0
8:35 pm 20:35 Sunny 86 30.1 77 25 74 74 ESE 8 13 29.65 1004 10 16.0934 0 0
8:55 pm 20:55 Sunny 85 29.5 77 25 77 77 ESE 7 11 29.65 1004 10 16.0934 0 0
9:15 pm 21:15 Clear 84 28.7 77 25 80 80 E 8 13 29.71 1006 10 16.0934 0 0
9:35 pm 21:35 Clear 82 28 77 24.9 83 83 E 8 13 29.71 1006 10 16.0934 0 0
9:55 pm 21:55 Clear 81 27.1 76 24.7 87 87 E 8 13 29.71 1006 10 16.0934 0 0
10:15 pm 22:15 Clear 80 26.6 76 24.3 87 87 E 8 13 29.74 1007 10 16.0934 0 0
10:35 pm 22:35 Clear 80 26.5 76 24.5 89 89 E 9 15 29.74 1007 10 16.0934 0 0
10:55 pm 22:55 Clear 79 26.1 76 24.5 91 91 E 9 15 29.74 1007 7 11.26538 0 0
11:15 pm 23:15 Clear 78 25.8 76 24.3 91 91 E 8 13 29.74 1007 7 11.26538 0 0
11:35 pm 23:35 Clear 78 25.7 76 24.2 91 91 E 10 17 29.74 1007 7 11.26538 0 0
11:55 pm 23:55 Clear 78 25.6 76 24.2 92 92 E 9 15 29.77 1008 7 11.26538 0 0

Powered by AerisWeather